GLOBALSTAR M094

Last updated on Sat Sep 05 2026 00:03:16 GMT+0000 (Coordinated Universal Time)

1 39074U 13005C 26247.08257054 -.00000088 00000+0 86436-4 0 9991 2 39074 51.9948 270.5895 0000469 127.2846 232.8063 12.62264708628431
UTC large
Height (km)
Speed (km/s)
/
Latitude / Longitude
Inclination (degrees)
Orbital Period (minutes)
Azimuth
Elevation
Range (km)
Doppler Factor

Next 0 passes for location: London (51.5072 / 0.1276)

No passes found over London.
GLOBALSTAR M094